Location: Ariel
(45.9570°N, 122.5700°W)
Time: 15:31:06
(UTC-08:00)

Transit 4A - Pass Details

Date: 02 November 2020
Orbit: 862 x 982 km, 66.8° (Epoch: 03 December)

Event Time Altitude Azimuth Distance (km) Brightness Sun altitude
Rises 20:20:39 0° 327° (NNW) 3,694 11.6 -36.1°
Reaches altitude 10° 20:24:10 10° 345° (NNW) 2,745 10.6 -36.7°
Enters shadow 20:25:59 15° 0° (N) 2,391 10.1 -37.0°
